When you browse on this site, cookies collect data to enhance your experience and personalize the content and advertising you see.
Visit our Privacy Policy to learn more. By continuing to use the site, you agree to this use of cookies and data.
  • In Hungary
  • List of Countries
  • For 7 days
  • Water Temperature
  • Weather Map
  • News
  • Weather Widgets
  • user-avatar
    Login

    Hourly Weather Kud

    Today, 25 January, Saturday

    Time Temperature Precipitation Wind Pressure Humidity
    00:00 0°C° 0.1 mm 5 mps 728 mmHg 92%
    01:00 -1°C° 0.1 mm 4 mps 728 mmHg 91%
    02:00 -1°C° 0.1 mm 4 mps 729 mmHg 90%
    03:00 -1°C° 0 mm 4 mps 728 mmHg 91%
    04:00 -1°C° 0 mm 4 mps 728 mmHg 92%
    05:00 -1°C° 0 mm 4 mps 728 mmHg 93%
    06:00 -1°C° 0 mm 4 mps 727 mmHg 90%
    07:00 -1°C° 0 mm 5 mps 727 mmHg 87%
    08:00 -1°C° 0 mm 5 mps 727 mmHg 82%
    09:00 -2°C° 0.2 mm 6 mps 727 mmHg 80%
    10:00 -2°C° 0.2 mm 7 mps 727 mmHg 78%
    11:00 -2°C° 0.2 mm 7 mps 727 mmHg 76%
    12:00 -2°C° 0.2 mm 7 mps 727 mmHg 73%
    13:00 -2°C° 0.2 mm 7 mps 728 mmHg 70%
    14:00 -2°C° 0.2 mm 6 mps 728 mmHg 67%
    15:00 -3°C° 0.1 mm 6 mps 728 mmHg 69%
    16:00 -3°C° 0.1 mm 6 mps 729 mmHg 71%
    17:00 -4°C° 0.1 mm 6 mps 730 mmHg 73%
    18:00 -4°C° 0 mm 6 mps 730 mmHg 74%
    19:00 -4°C° 0 mm 6 mps 730 mmHg 75%
    20:00 -4°C° 0 mm 6 mps 731 mmHg 76%
    21:00 -4°C° 0 mm 6 mps 732 mmHg 76%
    22:00 -4°C° 0 mm 6 mps 733 mmHg 76%
    23:00 -5°C° 0 mm 5 mps 734 mmHg 75%

    Tomorrow, 26 January, Sunday

    Time Temperature Precipitation Wind Pressure Humidity
    00:00 -5°C° 0 mm 5 mps 734 mmHg 77%
    01:00 -5°C° 0 mm 5 mps 735 mmHg 78%
    02:00 -4°C° 0 mm 4 mps 735 mmHg 79%
    03:00 -4°C° 0 mm 4 mps 736 mmHg 81%
    04:00 -4°C° 0 mm 3 mps 736 mmHg 82%
    05:00 -5°C° 0 mm 3 mps 737 mmHg 83%
    06:00 -4°C° 0 mm 3 mps 737 mmHg 83%
    07:00 -4°C° 0 mm 3 mps 737 mmHg 83%
    08:00 -4°C° 0 mm 3 mps 737 mmHg 84%
    09:00 -4°C° 0 mm 3 mps 737 mmHg 79%
    10:00 -2°C° 0 mm 3 mps 737 mmHg 74%
    11:00 -2°C° 0 mm 4 mps 737 mmHg 70%
    12:00 -2°C° 0.2 mm 4 mps 736 mmHg 77%
    13:00 -2°C° 0.2 mm 5 mps 736 mmHg 85%
    14:00 -3°C° 0.2 mm 6 mps 735 mmHg 93%
    15:00 -2°C° 0.6 mm 6 mps 735 mmHg 94%
    16:00 -2°C° 0.6 mm 6 mps 734 mmHg 95%
    17:00 0°C° 0.6 mm 5 mps 734 mmHg 96%
    18:00 0°C° 0.1 mm 5 mps 734 mmHg 94%
    19:00 +1°C° 0.1 mm 5 mps 734 mmHg 93%
    20:00 +1°C° 0.1 mm 5 mps 734 mmHg 91%
    21:00 +1°C° 0 mm 5 mps 734 mmHg 91%
    22:00 +1°C° 0 mm 5 mps 735 mmHg 91%
    23:00 +1°C° 0 mm 5 mps 735 mmHg 91%

    Day after tomorrow, 27 January, Monday

    Time Temperature Precipitation Wind Pressure Humidity
    00:00 +1°C° 0 mm 4 mps 735 mmHg 92%
    01:00 +1°C° 0 mm 4 mps 735 mmHg 93%
    02:00 +1°C° 0 mm 4 mps 735 mmHg 93%
    03:00 +1°C° 0.1 mm 4 mps 735 mmHg 94%
    04:00 +1°C° 0.1 mm 4 mps 735 mmHg 94%
    05:00 +2°C° 0.1 mm 3 mps 736 mmHg 94%
    06:00 +1°C° 0.1 mm 3 mps 736 mmHg 95%
    07:00 +1°C° 0.1 mm 3 mps 736 mmHg 96%
    08:00 +2°C° 0.1 mm 2 mps 736 mmHg 97%
    09:00 +2°C° 0.1 mm 2 mps 736 mmHg 98%
    10:00 +2°C° 0.1 mm 2 mps 736 mmHg 98%
    11:00 +2°C° 0.1 mm 2 mps 737 mmHg 98%
    12:00 +2°C° 0.2 mm 2 mps 736 mmHg 98%
    13:00 +2°C° 0.2 mm 2 mps 736 mmHg 98%
    14:00 +3°C° 0.2 mm 1 mps 736 mmHg 98%
    15:00 +2°C° 0.4 mm 2 mps 736 mmHg 98%
    16:00 +2°C° 0.4 mm 2 mps 736 mmHg 98%
    17:00 +2°C° 0.4 mm 2 mps 736 mmHg 98%
    18:00 +2°C° 0.3 mm 2 mps 736 mmHg 98%
    19:00 +1°C° 0.3 mm 2 mps 736 mmHg 98%
    20:00 +1°C° 0.3 mm 2 mps 736 mmHg 98%
    21:00 +2°C° 0.1 mm 1 mps 736 mmHg 98%
    22:00 +2°C° 0.1 mm 1 mps 736 mmHg 98%
    23:00 +2°C° 0.1 mm 1 mps 736 mmHg 98%

    28 January, Tuesday

    Time Temperature Precipitation Wind Pressure Humidity
    00:00 +2°C° 0.2 mm 1 mps 735 mmHg 98%
    01:00 +2°C° 0.2 mm 1 mps 735 mmHg 98%
    02:00 +1°C° 0.2 mm 1 mps 735 mmHg 98%
    03:00 +2°C° 0.2 mm 1 mps 735 mmHg 98%
    04:00 +2°C° 0.2 mm 1 mps 735 mmHg 98%
    05:00 +2°C° 0.2 mm 1 mps 735 mmHg 98%
    06:00 +2°C° 0.2 mm 1 mps 735 mmHg 98%
    07:00 +2°C° 0.2 mm 1 mps 735 mmHg 98%
    08:00 +2°C° 0.2 mm 1 mps 734 mmHg 98%
    09:00 +2°C° 0.1 mm 1 mps 734 mmHg 98%
    10:00 +2°C° 0.1 mm 1 mps 734 mmHg 98%
    11:00 +2°C° 0.1 mm 1 mps 734 mmHg 98%
    12:00 +2°C° 0 mm 1 mps 734 mmHg 97%
    13:00 +1°C° 0 mm 2 mps 734 mmHg 97%
    14:00 +1°C° 0 mm 2 mps 734 mmHg 96%
    15:00 +1°C° 0 mm 2 mps 734 mmHg 96%
    16:00 +1°C° 0 mm 2 mps 734 mmHg 96%
    17:00 +1°C° 0 mm 2 mps 734 mmHg 96%
    18:00 +1°C° 0 mm 2 mps 734 mmHg 96%
    19:00 +1°C° 0 mm 2 mps 734 mmHg 96%
    20:00 -1°C° 0 mm 2 mps 733 mmHg 96%
    21:00 0°C° 0 mm 3 mps 733 mmHg 96%
    22:00 0°C° 0 mm 3 mps 733 mmHg 96%
    23:00 0°C° 0 mm 3 mps 733 mmHg 96%

    29 January, Wednesday

    Time Temperature Precipitation Wind Pressure Humidity
    00:00 0°C° 0 mm 3 mps 733 mmHg 96%
    01:00 0°C° 0 mm 3 mps 733 mmHg 96%
    02:00 0°C° 0 mm 3 mps 732 mmHg 96%
    03:00 0°C° 0 mm 3 mps 732 mmHg 95%
    04:00 -1°C° 0 mm 4 mps 732 mmHg 94%
    05:00 -1°C° 0 mm 4 mps 731 mmHg 92%
    06:00 -1°C° 0 mm 4 mps 731 mmHg 92%
    07:00 -1°C° 0 mm 4 mps 731 mmHg 91%
    08:00 -1°C° 0 mm 4 mps 730 mmHg 90%
    09:00 -1°C° 0.1 mm 4 mps 730 mmHg 92%
    10:00 -2°C° 0.1 mm 5 mps 730 mmHg 94%
    11:00 -2°C° 0.1 mm 5 mps 730 mmHg 95%
    12:00 -1°C° 0.3 mm 4 mps 730 mmHg 95%
    13:00 -1°C° 0.3 mm 4 mps 730 mmHg 96%
    14:00 -1°C° 0.3 mm 4 mps 730 mmHg 96%
    15:00 -1°C° 0.1 mm 4 mps 729 mmHg 96%
    16:00 -1°C° 0.1 mm 4 mps 729 mmHg 96%
    17:00 0°C° 0.1 mm 3 mps 729 mmHg 97%
    18:00 +1°C° 0.2 mm 3 mps 729 mmHg 97%
    19:00 +1°C° 0.2 mm 3 mps 728 mmHg 97%
    20:00 +1°C° 0.2 mm 3 mps 728 mmHg 97%
    21:00 +1°C° 0.1 mm 3 mps 728 mmHg 97%
    22:00 0°C° 0.1 mm 4 mps 727 mmHg 97%
    23:00 0°C° 0.1 mm 4 mps 727 mmHg 96%

    30 January, Thursday

    Time Temperature Precipitation Wind Pressure Humidity
    00:00 0°C° 0.5 mm 4 mps 726 mmHg 96%
    01:00 -1°C° 0.5 mm 4 mps 726 mmHg 96%
    02:00 -1°C° 0.5 mm 4 mps 726 mmHg 96%
    03:00 0°C° 0.6 mm 3 mps 725 mmHg 97%
    04:00 0°C° 0.6 mm 3 mps 725 mmHg 97%
    05:00 +1°C° 0.6 mm 2 mps 725 mmHg 97%
    06:00 -1°C° 0.5 mm 3 mps 725 mmHg 96%
    07:00 -2°C° 0.5 mm 4 mps 725 mmHg 95%
    08:00 -3°C° 0.5 mm 4 mps 725 mmHg 93%
    09:00 -3°C° 0.1 mm 4 mps 725 mmHg 91%
    10:00 -2°C° 0.1 mm 4 mps 725 mmHg 89%
    11:00 -2°C° 0.1 mm 4 mps 725 mmHg 87%
    12:00 -1°C° 0.1 mm 3 mps 725 mmHg 89%
    13:00 -1°C° 0.1 mm 3 mps 725 mmHg 92%
    14:00 -1°C° 0.1 mm 3 mps 725 mmHg 94%
    15:00 -1°C° 0.4 mm 3 mps 725 mmHg 95%
    16:00 -2°C° 0.4 mm 4 mps 725 mmHg 96%
    17:00 -2°C° 0.4 mm 4 mps 725 mmHg 97%
    18:00 -2°C° 0.5 mm 4 mps 725 mmHg 97%
    19:00 -2°C° 0.5 mm 4 mps 726 mmHg 97%
    20:00 -2°C° 0.5 mm 4 mps 726 mmHg 96%
    21:00 -2°C° 0.3 mm 4 mps 726 mmHg 96%
    22:00 -2°C° 0.3 mm 4 mps 726 mmHg 97%
    23:00 -2°C° 0.3 mm 4 mps 726 mmHg 97%
    Show more